Location: Mat�lon
(46.2791°N, 7.1028°E)
Time: 05:49:26
(UTC+00:00)

In-Cosmos 22 - Pass Details

Date: 18 September 2020
Orbit: 785 x 877 km, 81.2° (Epoch: 23 October)

Event Time Altitude Azimuth Distance (km) Brightness Sun altitude
Rises 19:08:50 0° 349° (NNW) 3,288 7.7 -16.4°
Reaches altitude 10° 19:11:12 10° 349° (N) 2,356 6.9 -16.8°
Maximum altitude 19:16:31 88° 79° (ENE) 798 4.0 -17.7°
Enters shadow 19:21:26 12° 170° (S) 2,202 6.1 -18.5°
